Tracking 20040 objects as of 19-Nov-2019
Live streaming from Space Station
objects crossing your sky now

SCOUT B-1 DEB

Track SCOUT B-1 DEB now!
10-day predictions


NORAD ID: 6284
Int'l Code: 1972-069D
Perigee: 659.8 km
Apogee: 722.9 km
Inclination: 90.4 °
Period: 98.4 minutes
Semi major axis: 7062 km
RCS: 0.034 m2 (small)
Launch date: September 2, 1972
Source: United States (US)
Launch site: AIR FORCE WESTERN TEST RANGE (AFWTR)

Note: This is SATELLITE DEBRIS
aabbcc
Your satellite tracking list
Your tracking list is empty




NASA's NSSDC Master Catalog

Two Line Element Set (TLE):
1  6284U 72069D   19320.93312467 +.00000257 +00000-0 +47381-4 0  9995
2  6284 090.4469 208.8770 0044628 328.3987 031.4548 14.62776018396038
Source of the keplerian elements: AFSPC